EW9853 Weather Reports


time (UTC)temp
F
wind
direction
speed
knots
gust
knots
rain 1hr
in
rain 24hr
in
rain mn
in
humidity
%
barometer
mb
20260901074537 76 212 0.0 3.5 0.00 0.11 0.00 87 1011.4
20260901073027 76 231 0.0 4.3 0.00 0.11 0.00 87 1011.3
20260901071525 76 206 0.9 4.3 0.00 0.11 0.00 87 1011.3
20260901070024 76 275 0.0 2.6 0.00 0.11 0.00 87 1011.3
20260901064523 76 205 0.0 2.6 0.00 0.11 0.00 87 1011.3
20260901063023 76 224 0.9 2.6 0.00 0.11 0.00 88 1011.1
20260901061521 76 224 0.9 2.6 0.00 0.11 0.00 87 1011.0
20260901060019 76 245 0.0 1.7 0.00 0.11 0.00 87 1011.1
20260901054518 77 220 0.9 3.5 0.00 0.11 0.00 87 1011.2
20260901053015 77 218 1.7 3.5 0.00 0.11 0.00 86 1011.2
20260901051527 77 252 1.7 5.2 0.00 0.11 0.00 86 1011.1
20260901050013 77 233 1.7 4.3 0.00 0.11 0.00 87 1011.2
20260901044512 77 219 1.7 4.3 0.00 0.11 0.11 87 1011.3
20260901043012 77 210 0.0 5.2 0.00 0.11 0.11 87 1011.4
20260901041522 78 213 1.7 3.5 0.00 0.11 0.11 88 1011.4
20260901040018 78 229 0.9 3.5 0.00 0.11 0.11 88 1011.3
20260901034510 78 228 0.0 0.9 0.00 0.11 0.11 89 1011.4
20260901033012 78 228 0.0 1.7 0.00 0.11 0.11 89 1011.3
20260901031510 78 228 0.0 0.9 0.00 0.11 0.11 89 1011.5
20260901030009 78 228 0.0 0.9 0.00 0.11 0.11 89 1011.4
20260901024509 78 228 0.0 4.3 0.00 0.11 0.11 88 1011.4
20260901023010 78 229 0.0 0.0 0.00 0.11 0.11 88 1011.7
20260901021510 79 229 0.9 2.6 0.00 0.11 0.11 88 1011.5
20260901020008 79 167 0.0 3.5 0.00 0.11 0.11 87 1011.4
20260901014520 78 214 0.9 4.3 0.00 0.12 0.11 88 1011.2
20260901013006 79 271 0.0 1.7 0.00 0.12 0.11 87 1011.3
20260901011506 79 288 0.0 0.9 0.00 0.12 0.11 87 1011.3
20260901010006 80 288 0.0 0.9 0.00 0.12 0.11 85 1011.1
20260901004504 80 288 0.0 1.7 0.00 0.12 0.11 85 1011.2
20260901003005 80 218 0.0 0.9 0.01 0.12 0.11 83 1011.1
20260901001503 81 218 0.0 5.2 0.01 0.12 0.11 83 1010.9
20260901000003 81 226 0.9 9.6 0.01 0.12 0.11 83 1010.7
20260831234502 81 229 1.7 5.2 0.01 0.12 0.11 85 1010.2
20260831233001 82 278 0.0 1.7 0.02 0.11 0.10 87 1011.3
20260831231502 82 309 0.0 1.7 0.05 0.11 0.10 86 1011.3
20260831230101 83 166 0.0 0.0 0.05 0.11 0.10 84 1010.8
20260831224600 83 196 0.0 0.9 0.05 0.11 0.10 81 1010.6
20260831223059 86 226 0.9 5.2 0.04 0.10 0.09 72 1011.0
20260831221559 88 221 1.7 7.0 0.00 0.06 0.05 65 1010.6
20260831220059 89 203 0.0 8.7 0.00 0.06 0.05 63 1010.4
20260831214606 89 288 3.5 9.6 0.00 0.06 0.05 61 1010.3
20260831213057 89 215 1.7 6.1 0.00 0.06 0.05 62 1010.4
20260831211556 90 266 1.7 9.6 0.00 0.06 0.05 60 1010.6
20260831210053 89 233 0.9 7.0 0.00 0.06 0.05 62 1010.6
20260831204555 89 216 1.7 7.8 0.00 0.06 0.05 61 1010.7
20260831203052 89 290 0.9 7.8 0.00 0.06 0.05 62 1010.9
20260831201551 88 314 2.6 8.7 0.00 0.06 0.05 61 1011.1
20260831200050 88 216 2.6 7.0 0.00 0.06 0.05 61 1010.7
20260831194549 88 224 2.6 7.8 0.00 0.06 0.05 60 1010.8
20260831193047 90 205 2.6 8.7 0.00 0.06 0.05 57 1011.1
20260831191544 89 172 2.6 11.3 0.00 0.06 0.05 59 1011.0
20260831190043 88 214 2.6 10.4 0.00 0.06 0.05 58 1011.0
20260831184540 87 177 3.5 14.8 0.00 0.06 0.05 59 1011.0
20260831183039 87 176 5.2 11.3 0.00 0.06 0.05 59 1011.1
20260831181537 86 214 3.5 11.3 0.00 0.06 0.05 63 1011.3
20260831180031 85 209 3.5 11.3 0.00 0.06 0.05 64 1011.4
20260831174530 83 217 2.6 7.8 0.00 0.06 0.05 68 1011.5
20260831173024 81 176 3.5 9.6 0.00 0.06 0.05 71 1011.6
20260831171523 79 126 5.2 10.4 0.00 0.06 0.05 74 1012.0
20260831170019 78 206 2.6 8.7 0.00 0.06 0.05 76 1012.4
20260831164516 77 183 3.5 8.7 0.00 0.06 0.05 78 1012.6
20260831163010 76 163 3.5 11.3 0.00 0.06 0.05 79 1012.7
20260831161508 74 219 2.6 7.8 0.00 0.06 0.05 84 1012.7
20260831160007 73 205 2.6 7.0 0.00 0.06 0.05 86 1012.7
20260831154506 72 139 0.9 5.2 0.00 0.06 0.05 88 1012.9
20260831153006 72 183 2.6 6.1 0.00 0.06 0.05 86 1013.1
20260831151510 72 160 1.7 5.2 0.00 0.06 0.05 86 1013.1
20260831150005 71 189 1.7 6.1 0.00 0.06 0.05 87 1013.2
20260831144502 71 109 1.7 5.2 0.00 0.06 0.05 88 1013.0
20260831143003 70 163 0.9 5.2 0.00 0.06 0.05 88 1013.1
20260831141502 70 96 1.7 4.3 0.00 0.06 0.05 89 1013.1
20260831140003 70 148 0.9 2.6 0.03 0.11 0.05 90 1013.2
20260831134501 69 119 0.0 5.2 0.03 0.11 0.05 90 1013.1
20260831133102 69 153 0.9 2.6 0.03 0.11 0.05 90 1013.0
20260831131610 70 234 0.9 2.6 0.03 0.11 0.05 89 1013.1
20260831130057 71 70 0.0 2.6 0.00 0.08 0.02 85 1013.3
20260831124601 71 203 0.0 0.9 0.00 0.15 0.02 82 1012.9
20260831123052 71 305 0.0 1.7 0.00 0.15 0.02 82 1012.6
20260831121554 71 244 1.7 8.7 0.00 0.15 0.02 83 1012.3
20260831120048 70 184 1.7 5.2 0.02 0.15 0.02 85 1012.0
20260831114552 70 161 0.9 3.5 0.02 0.15 0.02 86 1011.9
20260831113048 70 223 0.9 3.5 0.02 0.15 0.02 86 1011.7
20260831111550 71 215 1.7 5.2 0.02 0.15 0.02 81 1011.8
20260831110055 73 219 3.5 7.8 0.00 0.13 0.00 76 1012.0
20260831104542 73 231 0.9 5.2 0.00 0.13 0.00 75 1011.9
20260831103040 73 231 3.5 6.1 0.00 0.13 0.00 73 1011.9
20260831101544 74 238 1.7 6.1 0.00 0.13 0.00 73 1011.8
20260831100035 74 201 1.7 5.2 0.00 0.13 0.00 73 1011.5
20260831094539 74 149 1.7 6.1 0.00 0.13 0.00 74 1011.7
20260831093033 74 165 1.7 6.1 0.00 0.13 0.00 74 1011.8
20260831091544 74 240 0.9 4.3 0.00 0.13 0.00 74 1011.9
20260831090030 74 163 0.9 7.0 0.00 0.13 0.00 75 1011.8
20260831084529 74 219 1.7 6.1 0.00 0.13 0.00 76 1011.9
20260831083029 74 224 1.7 4.3 0.00 0.13 0.00 77 1011.8
20260831081528 74 231 1.7 5.2 0.00 0.13 0.00 76 1011.8
20260831080031 74 207 2.6 6.1 0.00 0.13 0.00 76 1011.8